ATLAS 5 CENTAUR DEB, 44685

Orbit data source: Space-Track

ATLAS 5 CENTAUR DEB, 44685 is space debris in HEO originally from a launch on Wed, 17 Oct 2018 UTC launched from the Air Force Eastern Test Range (AFETR). Debris objects in space refer to the collection of defunct objects orbiting the Earth. Examples of debris include non-operational satellites, rocket bodies, and fragments generated from explosions, collisions, or faulty payload assembly.

Loading next visibility...
Identifier
44685, 2018-079AX
Orbit
HEO
Country
Flag of USUS
Related business
Flag of USUnited Launch Alliance/Lockheed Martin (US)
Manufacturer
ULA Decatur
Mission
Spacecraft
Bus & Motor
Unknown
Mass
Unknown
Launch date (UTC)
2018-10-17 (7 years ago)
Launch vehicle
Unknown
Launch site
Air Force Eastern Test Range (AFETR)
Object type
Payload
Rocket body
Debris
Shape & HBR
Unknown shape, 1.1 m
Radar Cross Section
RCS unknown

Expand to show TLE details & history
Last TLE update: 1 day ago

TLE from 1 day ago
0 ATLAS 5 CENTAUR DEB
1 44685U 18079AX  25286.35451135 -.00000060  00000-0  00000-0 0  9999
2 44685  12.0954  92.1093 4595262 200.5449 132.5281  1.69266271 39320
Epoch: 2025-10-13T08:30Z
TLE epoch observation values (Epoch: 2025-10-13T08:30:29.780Z)
Latitude
-0.00004°
Longitude
-57.67188°
Altitude
34,780.893 km
Speed
2.443 km/s
True Right ascension
06h 08m 26s
True Declination
0° 00' 00"
Sunlit
Object was in daylight at epoch
Visualization orbit readout
Latitude
Unknown
Longitude
Unknown
Altitude
Unknown
Speed
Unknown
Apparent Right ascension
Unknown
Apparent Declination
Unknown
Sunlit
N/A
Visualization observer readout
Local Sidereal Time
05:35:27
Azimuth
Unknown
Elevation
Unknown
Doppler factor
Unknown
Orbital elements
Apogee altitude
37,032.473 km
Perigee altitude
9,697.146 km
Semi-major axis
29,742.946 km
Eccentricity
0.45953
Inclination
12.0954°
RAAN
92.1093°
Arg. of periapsis
200.5449°
True anomaly
159.50263°
Mean anomaly
132.5281°
Eccentric anomaly
146.9046°
Mean motion
0.42312 °/min
Orbital period
850.82 mins
BSTAR
0
Loading maneuver chart data...
Computing Atmospheric mass density...

Documentation

Showing up to 5 results
|